sat.trackr.live / text

‹ back to catalog

COSMOS 2456 (730)

NORAD 36111 · 2009-070A

PAYLOAD ACTIVE UNKNOWN

§ Identity

Operator
Country
CIS
Launch date
2009-12-14
Launch site
TYMSC
Launch vehicle
Mass (kg)
RCS (m²)
5.01

Purposes: nav

External: N2YO · Heavens-Above · Gunter

§ Orbital elements

Epoch: 2026-09-19T15:32:17.286720Z

Period
675.73 min
Inclination
65.0719°
Eccentricity
0.0001438
Mean motion
2.13103735 rev/d
Perigee alt
19,126.1 km
Apogee alt
19,133.4 km
Semi-major
25,507.9 km
B*
0.0000e+0
RAAN
67.7525°
Arg perigee
346.3798°
Mean anomaly
16.9615°
Rev number
13,044

§ Raw data

COSMOS 2456 (730)1 36111U 09070A   26262.64742230  .00000028  00000+0  00000+0 0  99922 36111  65.0719  67.7525 0001438 346.3798  16.9615  2.13103735130445

JSON: /api/v1/satellites/36111 · /tle

For live sub-satellite position, see the globe view (requires WebGL).

§ Visibility from observer

Set your observer location to see the next 7 days of passes ≥ 10°. The values pass through the URL so the page stays shareable.

No JS? Fill the form by hand. The geolocation button needs JavaScript.